Flag for U.S.A. Weather past 2 weeks in San Angelo, Texas, U.S.A.

Now
80 °F

Sunny.


Feels Like: 83 °F
Forecast: 76 / 99 °F
Wind: 10 mph from South

Location: Mathis Field

Current Time: Jul 29, 2015 at 9:38:33 AM

Latest Report: Jul 29, 2015 at 8:51 AM


Visibility: 10 mi

Pressure: 29.98 "Hg (28.12 "Hg at 561m altitude)

Humidity: 67%

Dew point: 68 °F

Location of San AngeloLocation

Historic Weather in San Angelo — Graph

°F

San Angelo temperature yesterday

Maximum temperature yesterday: 102 °F (at 5:51 PM)
Minimum temperature yesterday: 77 °F (at 6:51 AM)
Average temperature yesterday: 89 °F

Past Weeks' High & Low Weather Summary

 TemperatureHumidityPressure
High104 °F (Jul 26, 3:51 PM)100% (Jul 17, 5:51 AM)29.99 "Hg (Jul 17, 5:51 AM)
Low71 °F (Jul 14, 7:51 AM)21% (Jul 14, 4:51 PM)29.72 "Hg (Jul 21, 7:51 PM)
Average87 °F49%29.86 "Hg
* Reported Jul 14 7:51 AM — Jul 29 7:51 AM, San Angelo, Weather by CustomWeather, © 2015

Note: Actual official high and low records may vary slightly from our data, if they occured in-between our weather recording intervals... More about our weather records

Advertising

San Angelo weather history for previous 24 hours

 ConditionsComfort  
Time TempWeatherWind HumidityBarometerVisibility
7:51 AM
Wed, Jul 29
77 °FClear.5 mph74%29.96 "Hg10 mi
6:51 AM76 °FClear.3 mph77%29.95 "Hg10 mi
5:51 AM76 °FClear.5 mph77%29.93 "Hg10 mi
4:51 AM79 °FClear.8 mph69%29.92 "Hg10 mi
3:51 AM79 °FClear.8 mph65%29.91 "Hg10 mi
2:51 AM82 °FClear.7 mph56%29.91 "Hg10 mi
1:51 AM82 °FClear.7 mph51%29.92 "Hg10 mi
12:51 AM83 °FClear.5 mph50%29.91 "Hg10 mi
11:51 PM
Tue, Jul 28
87 °FClear.8 mph43%29.89 "Hg10 mi
10:51 PM87 °FClear.7 mph42%29.87 "Hg10 mi
9:51 PM91 °FClear.9 mph36%29.82 "Hg10 mi
8:51 PM94 °FSunny.8 mph31%29.80 "Hg10 mi
7:51 PM98 °FPartly sunny.9 mph26%29.79 "Hg10 mi
6:51 PM100 °FScattered clouds.8 mph25%29.78 "Hg10 mi
5:51 PM102 °FScattered clouds.9 mph23%29.79 "Hg10 mi
4:51 PM101 °FPassing clouds.10 mph24%29.80 "Hg10 mi
3:51 PM100 °FScattered clouds.9 mph27%29.82 "Hg10 mi
2:51 PM100 °FSunny.6 mph28%29.84 "Hg10 mi
1:51 PM99 °FSunny.13 mph31%29.85 "Hg10 mi
12:51 PM96 °FSunny.9 mph36%29.87 "Hg10 mi
11:51 AM92 °FSunny.9 mph43%29.89 "Hg10 mi
10:51 AM88 °FSunny.10 mph48%29.89 "Hg10 mi
9:51 AM85 °FSunny.12 mph55%29.91 "Hg10 mi
Weather by CustomWeather, © 2015

See weather overviewHow to use our weather pages